| time (UTC) | temp F | wind direction | speed MPH | gust MPH | rain 1hr in | rain 24hr in | rain mn in | humidity % | barometer mb |
| 20260906223631 | 68 | 136 | 0.0 | 0.0 | 0.00 | 0.48 | 0.48 | 99 | 1018.1 |
| 20260906223131 | 68 | 133 | 0.0 | 0.0 | 0.07 | 0.48 | 0.48 | 99 | 1018.4 |
| 20260906222630 | 68 | 158 | 0.0 | 0.0 | 0.19 | 0.48 | 0.48 | 99 | 1018.3 |
| 20260906222128 | 67 | 158 | 0.0 | 0.0 | 0.17 | 0.47 | 0.47 | 99 | 1018.2 |
| 20260906221627 | 67 | 149 | 0.0 | 0.0 | 0.12 | 0.45 | 0.45 | 99 | 1018.4 |
| 20260906221121 | 67 | 133 | 0.0 | 0.0 | 0.12 | 0.44 | 0.44 | 99 | 1018.4 |
| 20260906220617 | 67 | 166 | 0.0 | 1.0 | 0.24 | 0.43 | 0.43 | 99 | 1018.8 |
| 20260906220112 | 67 | 158 | 0.0 | 0.0 | 0.24 | 0.41 | 0.41 | 99 | 1018.0 |
| 20260906215611 | 67 | 120 | 0.0 | 1.0 | 0.24 | 0.39 | 0.39 | 99 | 1018.1 |
| 20260906215109 | 67 | 119 | 0.0 | 1.0 | 0.19 | 0.37 | 0.37 | 98 | 1018.0 |
| 20260906214608 | 67 | 137 | 4.0 | 6.0 | 0.12 | 0.35 | 0.35 | 98 | 1018.0 |
| 20260906214103 | 67 | 87 | 2.0 | 3.0 | 0.07 | 0.33 | 0.33 | 98 | 1018.6 |
| 20260906213603 | 67 | 132 | 1.0 | 3.0 | 0.07 | 0.33 | 0.33 | 98 | 1018.4 |
| 20260906213057 | 67 | 131 | 2.0 | 3.0 | 0.00 | 0.32 | 0.32 | 97 | 1018.7 |
| 20260906212550 | 67 | 131 | 0.0 | 1.0 | 0.05 | 0.32 | 0.32 | 97 | 1018.8 |
| 20260906212046 | 67 | 144 | 0.0 | 1.0 | 0.05 | 0.32 | 0.32 | 97 | 1018.9 |
| 20260906211545 | 67 | 133 | 0.0 | 3.0 | 0.00 | 0.31 | 0.31 | 97 | 1018.7 |
| 20260906211040 | 67 | 172 | 0.0 | 1.0 | 0.00 | 0.31 | 0.31 | 97 | 1018.4 |
| 20260906210536 | 67 | 144 | 1.0 | 2.0 | 0.00 | 0.31 | 0.31 | 96 | 1018.4 |
| 20260906210036 | 67 | 139 | 0.0 | 1.0 | 0.07 | 0.31 | 0.31 | 96 | 1018.4 |
| 20260906205531 | 67 | 132 | 1.0 | 1.0 | 0.00 | 0.30 | 0.30 | 95 | 1018.2 |
| 20260906205027 | 67 | 162 | 1.0 | 2.0 | 0.00 | 0.30 | 0.30 | 95 | 1018.3 |
| 20260906204526 | 67 | 162 | 0.0 | 0.0 | 0.00 | 0.30 | 0.30 | 95 | 1018.1 |
| 20260906204021 | 67 | 144 | 0.0 | 1.0 | 0.00 | 0.30 | 0.30 | 96 | 1017.9 |
| 20260906203515 | 66 | 61 | 2.0 | 4.0 | 0.00 | 0.30 | 0.30 | 95 | 1018.1 |
| 20260906203016 | 66 | 114 | 2.0 | 3.0 | 0.00 | 0.30 | 0.30 | 96 | 1017.9 |
| 20260906202512 | 65 | 102 | 2.0 | 2.0 | 0.00 | 0.30 | 0.30 | 96 | 1018.4 |
| 20260906202007 | 66 | 145 | 1.0 | 2.0 | 0.00 | 0.30 | 0.30 | 97 | 1018.6 |
| 20260906201501 | 64 | 89 | 4.0 | 4.0 | 0.00 | 0.30 | 0.30 | 97 | 1018.3 |
| 20260906200956 | 65 | 113 | 0.0 | 0.0 | 0.12 | 0.30 | 0.30 | 97 | 1018.7 |
| 20260906200453 | 64 | 132 | 0.0 | 0.0 | 0.17 | 0.30 | 0.30 | 97 | 1018.9 |
| 20260906195952 | 64 | 163 | 0.0 | 2.0 | 0.07 | 0.27 | 0.27 | 97 | 1019.1 |
| 20260906195448 | 64 | 142 | 0.0 | 2.0 | 0.07 | 0.27 | 0.27 | 97 | 1019.1 |
| 20260906194944 | 64 | 146 | 1.0 | 2.0 | 0.00 | 0.26 | 0.26 | 97 | 1018.6 |
| 20260906194440 | 64 | 129 | 1.0 | 1.0 | 0.00 | 0.26 | 0.26 | 97 | 1018.9 |
| 20260906193935 | 64 | 118 | 1.0 | 1.0 | 0.05 | 0.26 | 0.26 | 97 | 1019.2 |
| 20260906193430 | 64 | 148 | 0.0 | 0.0 | 0.05 | 0.26 | 0.26 | 97 | 1019.4 |
| 20260906192925 | 64 | 154 | 1.0 | 3.0 | 0.00 | 0.25 | 0.25 | 97 | 1019.3 |
| 20260906192420 | 64 | 135 | 0.0 | 0.0 | 0.07 | 0.25 | 0.25 | 97 | 1019.0 |
| 20260906191919 | 64 | 96 | 0.0 | 1.0 | 0.07 | 0.25 | 0.25 | 96 | 1019.2 |
| 20260906191414 | 64 | 155 | 2.0 | 2.0 | 0.00 | 0.24 | 0.24 | 96 | 1019.7 |
| 20260906190908 | 64 | 153 | 0.0 | 1.0 | 0.07 | 0.24 | 0.24 | 96 | 1019.7 |
| 20260906190407 | 63 | 89 | 0.0 | 2.0 | 0.05 | 0.23 | 0.23 | 95 | 1019.7 |
| 20260906185902 | 63 | 134 | 0.0 | 1.0 | 0.05 | 0.23 | 0.23 | 97 | 1019.9 |
| 20260906185400 | 63 | 129 | 0.0 | 0.0 | 0.00 | 0.22 | 0.22 | 97 | 1020.3 |
| 20260906184855 | 63 | 147 | 0.0 | 0.0 | 0.00 | 0.22 | 0.22 | 97 | 1020.3 |
| 20260906184350 | 63 | 129 | 0.0 | 0.0 | 0.00 | 0.22 | 0.22 | 98 | 1020.0 |
| 20260906183845 | 63 | 131 | 0.0 | 0.0 | 0.00 | 0.22 | 0.22 | 97 | 1020.6 |
| 20260906183342 | 64 | 126 | 0.0 | 0.0 | 0.00 | 0.22 | 0.22 | 98 | 1020.8 |
| 20260906182842 | 63 | 167 | 0.0 | 0.0 | 0.00 | 0.22 | 0.22 | 98 | 1020.6 |
| 20260906182338 | 63 | 101 | 0.0 | 0.0 | 0.07 | 0.22 | 0.22 | 97 | 1020.8 |
| 20260906181838 | 63 | 232 | 1.0 | 2.0 | 0.07 | 0.22 | 0.22 | 97 | 1021.0 |
| 20260906181334 | 63 | 153 | 0.0 | 0.0 | 0.00 | 0.21 | 0.21 | 98 | 1020.9 |
| 20260906180829 | 63 | 144 | 0.0 | 0.0 | 0.05 | 0.21 | 0.21 | 97 | 1020.6 |
| 20260906180324 | 63 | 137 | 0.0 | 0.0 | 0.12 | 0.21 | 0.21 | 97 | 1020.7 |
| 20260906175821 | 63 | 142 | 0.0 | 0.0 | 0.07 | 0.20 | 0.20 | 97 | 1021.1 |
| 20260906175317 | 63 | 159 | 0.0 | 1.0 | 0.05 | 0.19 | 0.19 | 97 | 1021.1 |
| 20260906174816 | 63 | 131 | 0.0 | 0.0 | 0.07 | 0.18 | 0.18 | 97 | 1020.5 |
| 20260906174316 | 63 | 161 | 0.0 | 0.0 | 0.19 | 0.18 | 0.18 | 96 | 1020.8 |
| 20260906173811 | 63 | 148 | 0.0 | 0.0 | 0.12 | 0.16 | 0.16 | 96 | 1020.5 |
| 20260906173306 | 63 | 186 | 0.0 | 1.0 | 0.19 | 0.15 | 0.15 | 96 | 1020.6 |
| 20260906172805 | 63 | 175 | 1.0 | 1.0 | 0.26 | 0.14 | 0.14 | 96 | 1020.6 |
| 20260906172305 | 64 | 174 | 0.0 | 0.0 | 0.12 | 0.11 | 0.11 | 97 | 1020.5 |
| 20260906171756 | 64 | 139 | 0.0 | 0.0 | 0.12 | 0.10 | 0.10 | 96 | 1020.2 |
| 20260906171251 | 64 | 139 | 0.0 | 0.0 | 0.12 | 0.09 | 0.09 | 96 | 1020.5 |
| 20260906170747 | 64 | 143 | 0.0 | 0.0 | 0.17 | 0.08 | 0.08 | 96 | 1020.3 |
| 20260906170242 | 64 | 146 | 0.0 | 0.0 | 0.12 | 0.06 | 0.06 | 95 | 1020.2 |
| 20260906165738 | 64 | 160 | 0.0 | 1.0 | 0.12 | 0.05 | 0.05 | 94 | 1020.2 |
| 20260906165238 | 64 | 189 | 1.0 | 2.0 | 0.17 | 0.04 | 0.04 | 92 | 1019.9 |
| 20260906164738 | 65 | 127 | 1.0 | 1.0 | 0.05 | 0.02 | 0.02 | 90 | 1019.7 |
| 20260906164233 | 65 | 119 | 2.0 | 2.0 | 0.00 | 0.01 | 0.01 | 88 | 1019.4 |
| 20260906163729 | 65 | 136 | 0.0 | 0.0 | 0.00 | 0.01 | 0.01 | 88 | 1019.4 |
| 20260906163225 | 65 | 146 | 0.0 | 0.0 | 0.07 | 0.01 | 0.01 | 88 | 1019.4 |
| 20260906162721 | 65 | 149 | 0.0 | 1.0 | 0.07 | 0.01 | 0.01 | 86 | 1019.9 |
| 20260906162216 | 65 | 185 | 0.0 | 1.0 | 0.00 | 0.00 | 0.00 | 87 | 1019.7 |
| 20260906161711 | 64 | 146 | 1.0 | 6.0 | 0.00 | 0.00 | 0.00 | 87 | 1019.6 |
| 20260906161210 | 65 | 143 | 0.0 | 2.0 | 0.00 | 0.00 | 0.00 | 86 | 1019.4 |
| 20260906160709 | 65 | 140 | 0.0 | 7.0 | 0.00 | 0.00 | 0.00 | 86 | 1019.4 |
| 20260906160209 | 64 | 150 | 0.0 | 2.0 | 0.00 | 0.00 | 0.00 | 85 | 1019.2 |
| 20260906155706 | 64 | 180 | 2.0 | 3.0 | 0.00 | 0.00 | 0.00 | 86 | 1019.1 |
| 20260906155202 | 65 | 177 | 1.0 | 7.0 | 0.00 | 0.00 | 0.00 | 85 | 1018.8 |
| 20260906154657 | 66 | 103 | 4.0 | 7.0 | 0.00 | 0.00 | 0.00 | 81 | 1018.4 |
| 20260906154156 | 65 | 96 | 1.0 | 8.0 | 0.00 | 0.00 | 0.00 | 80 | 1018.1 |
| 20260906153655 | 65 | 149 | 3.0 | 3.0 | 0.00 | 0.00 | 0.00 | 81 | 1018.4 |
| 20260906153150 | 65 | 141 | 0.0 | 3.0 | 0.00 | 0.00 | 0.00 | 83 | 1018.2 |
| 20260906152645 | 65 | 136 | 1.0 | 3.0 | 0.00 | 0.00 | 0.00 | 80 | 1018.4 |
| 20260906152139 | 64 | 130 | 3.0 | 7.0 | 0.00 | 0.00 | 0.00 | 79 | 1018.3 |
| 20260906151634 | 64 | 89 | 2.0 | 9.0 | 0.00 | 0.00 | 0.00 | 79 | 1018.1 |
| 20260906151130 | 64 | 140 | 2.0 | 3.0 | 0.00 | 0.00 | 0.00 | 79 | 1018.1 |
| 20260906150625 | 64 | 129 | 1.0 | 4.0 | 0.00 | 0.00 | 0.00 | 79 | 1018.3 |
| 20260906150120 | 64 | 130 | 3.0 | 8.0 | 0.00 | 0.00 | 0.00 | 79 | 1018.1 |
| 20260906145619 | 64 | 89 | 2.0 | 4.0 | 0.00 | 0.00 | 0.00 | 79 | 1018.0 |
| 20260906145114 | 65 | 177 | 3.0 | 7.0 | 0.00 | 0.00 | 0.00 | 77 | 1018.1 |
| 20260906144608 | 65 | 138 | 1.0 | 3.0 | 0.00 | 0.00 | 0.00 | 74 | 1018.1 |
| 20260906144103 | 65 | 148 | 1.0 | 3.0 | 0.00 | 0.00 | 0.00 | 73 | 1018.0 |
| 20260906143558 | 66 | 146 | 1.0 | 4.0 | 0.00 | 0.00 | 0.00 | 72 | 1018.0 |
| 20260906143055 | 66 | 110 | 2.0 | 3.0 | 0.00 | 0.00 | 0.00 | 69 | 1017.7 |
| 20260906142553 | 67 | 172 | 2.0 | 4.0 | 0.00 | 0.00 | 0.00 | 68 | 1017.6 |
| 20260906142049 | 67 | 113 | 1.0 | 2.0 | 0.00 | 0.00 | 0.00 | 67 | 1017.7 |
| 20260906141548 | 68 | 156 | 1.0 | 6.0 | 0.00 | 0.00 | 0.00 | 66 | 1017.6 |
| 20260906141044 | 69 | 169 | 1.0 | 3.0 | 0.00 | 0.00 | 0.00 | 64 | 1017.4 |
| 20260906140543 | 69 | 157 | 1.0 | 2.0 | 0.00 | 0.00 | 0.00 | 60 | 1017.6 |
| 20260906140037 | 70 | 149 | 3.0 | 8.0 | 0.00 | 0.00 | 0.00 | 59 | 1017.6 |
| 20260906135534 | 70 | 125 | 1.0 | 2.0 | 0.00 | 0.00 | 0.00 | 60 | 1017.5 |
| 20260906135030 | 70 | 133 | 1.0 | 3.0 | 0.00 | 0.00 | 0.00 | 59 | 1017.4 |
| 20260906134525 | 70 | 144 | 2.0 | 3.0 | 0.00 | 0.00 | 0.00 | 59 | 1017.3 |
| 20260906134020 | 70 | 103 | 1.0 | 6.0 | 0.00 | 0.00 | 0.00 | 59 | 1017.3 |
| 20260906133516 | 70 | 208 | 3.0 | 7.0 | 0.00 | 0.00 | 0.00 | 57 | 1017.4 |
| 20260906133011 | 71 | 144 | 2.0 | 7.0 | 0.00 | 0.00 | 0.00 | 55 | 1017.5 |
| 20260906132507 | 71 | 162 | 0.0 | 0.0 | 0.00 | 0.00 | 0.00 | 54 | 1017.5 |
| 20260906132002 | 70 | 131 | 0.0 | 0.0 | 0.00 | 0.00 | 0.00 | 55 | 1017.2 |
| 20260906131457 | 69 | 112 | 0.0 | 0.0 | 0.00 | 0.00 | 0.00 | 57 | 1017.2 |
| 20260906130952 | 69 | 132 | 0.0 | 0.0 | 0.00 | 0.00 | 0.00 | 59 | 1017.3 |
| 20260906130451 | 69 | 120 | 0.0 | 0.0 | 0.00 | 0.00 | 0.00 | 62 | 1017.0 |
| 20260906125946 | 68 | 129 | 0.0 | 0.0 | 0.00 | 0.00 | 0.00 | 62 | 1017.1 |
| 20260906125444 | 68 | 118 | 0.0 | 0.0 | 0.00 | 0.00 | 0.00 | 64 | 1017.0 |
| 20260906124943 | 68 | 135 | 0.0 | 0.0 | 0.00 | 0.00 | 0.00 | 66 | 1017.2 |
| 20260906124439 | 68 | 136 | 0.0 | 0.0 | 0.00 | 0.00 | 0.00 | 65 | 1017.2 |
| 20260906123939 | 67 | 127 | 0.0 | 0.0 | 0.00 | 0.00 | 0.00 | 68 | 1017.1 |
| 20260906123433 | 67 | 135 | 0.0 | 0.0 | 0.00 | 0.00 | 0.00 | 67 | 1016.9 |
| 20260906122933 | 67 | 134 | 0.0 | 0.0 | 0.00 | 0.00 | 0.00 | 68 | 1016.8 |
| 20260906122428 | 67 | 134 | 0.0 | 0.0 | 0.00 | 0.00 | 0.00 | 68 | 1016.5 |
| 20260906121925 | 67 | 135 | 0.0 | 0.0 | 0.00 | 0.00 | 0.00 | 67 | 1016.7 |
| 20260906121421 | 67 | 134 | 0.0 | 0.0 | 0.00 | 0.00 | 0.00 | 67 | 1016.7 |
| 20260906120917 | 66 | 135 | 0.0 | 0.0 | 0.00 | 0.00 | 0.00 | 69 | 1016.5 |
| 20260906120412 | 66 | 135 | 0.0 | 0.0 | 0.00 | 0.00 | 0.00 | 69 | 1016.6 |
| 20260906115908 | 66 | 135 | 0.0 | 0.0 | 0.00 | 0.00 | 0.00 | 70 | 1016.5 |
| 20260906115404 | 66 | 135 | 0.0 | 0.0 | 0.00 | 0.00 | 0.00 | 70 | 1016.6 |
| 20260906114903 | 66 | 135 | 0.0 | 0.0 | 0.00 | 0.00 | 0.00 | 69 | 1016.4 |
| 20260906114358 | 66 | 135 | 0.0 | 0.0 | 0.00 | 0.00 | 0.00 | 70 | 1016.6 |
| 20260906113854 | 66 | 135 | 0.0 | 0.0 | 0.00 | 0.00 | 0.00 | 69 | 1016.5 |
| 20260906113352 | 66 | 135 | 0.0 | 0.0 | 0.00 | 0.00 | 0.00 | 70 | 1016.5 |
| 20260906112848 | 66 | 135 | 0.0 | 0.0 | 0.00 | 0.00 | 0.00 | 69 | 1016.6 |
| 20260906112343 | 67 | 137 | 0.0 | 0.0 | 0.00 | 0.00 | 0.00 | 69 | 1016.6 |
| 20260906111838 | 67 | 140 | 0.0 | 0.0 | 0.00 | 0.00 | 0.00 | 67 | 1016.8 |
| 20260906111338 | 67 | 132 | 0.0 | 0.0 | 0.00 | 0.00 | 0.00 | 67 | 1016.6 |
| 20260906110833 | 67 | 132 | 0.0 | 0.0 | 0.00 | 0.00 | 0.00 | 66 | 1016.4 |
| 20260906110329 | 67 | 132 | 0.0 | 0.0 | 0.00 | 0.00 | 0.00 | 66 | 1016.6 |
| 20260906105827 | 68 | 132 | 0.0 | 0.0 | 0.00 | 0.00 | 0.00 | 66 | 1016.6 |
| 20260906105323 | 68 | 132 | 0.0 | 0.0 | 0.00 | 0.00 | 0.00 | 66 | 1016.4 |
| 20260906104819 | 68 | 131 | 0.0 | 0.0 | 0.00 | 0.00 | 0.00 | 66 | 1016.5 |
| 20260906104318 | 68 | 132 | 0.0 | 0.0 | 0.00 | 0.00 | 0.00 | 65 | 1016.7 |
| 20260906103816 | 68 | 128 | 0.0 | 0.0 | 0.00 | 0.00 | 0.00 | 66 | 1016.7 |
| 20260906103315 | 68 | 124 | 0.0 | 0.0 | 0.00 | 0.00 | 0.00 | 66 | 1016.7 |
| 20260906102811 | 68 | 132 | 0.0 | 0.0 | 0.00 | 0.00 | 0.00 | 66 | 1016.6 |
| 20260906102310 | 68 | 131 | 0.0 | 0.0 | 0.00 | 0.00 | 0.00 | 67 | 1016.5 |
| 20260906101805 | 68 | 112 | 0.0 | 0.0 | 0.00 | 0.00 | 0.00 | 67 | 1016.7 |
| 20260906101300 | 68 | 132 | 0.0 | 0.0 | 0.00 | 0.00 | 0.00 | 68 | 1016.7 |
| 20260906100756 | 68 | 131 | 0.0 | 0.0 | 0.00 | 0.00 | 0.00 | 69 | 1016.6 |
| 20260906100255 | 67 | 132 | 0.0 | 0.0 | 0.00 | 0.00 | 0.00 | 70 | 1016.5 |
| 20260906095750 | 67 | 120 | 0.0 | 0.0 | 0.00 | 0.00 | 0.00 | 70 | 1016.6 |
| 20260906095245 | 67 | 139 | 0.0 | 0.0 | 0.00 | 0.00 | 0.00 | 70 | 1016.5 |
| 20260906094744 | 67 | 140 | 0.0 | 0.0 | 0.00 | 0.00 | 0.00 | 70 | 1016.8 |
| 20260906094240 | 67 | 153 | 0.0 | 0.0 | 0.00 | 0.00 | 0.00 | 70 | 1016.6 |
| 20260906093736 | 67 | 152 | 0.0 | 0.0 | 0.00 | 0.00 | 0.00 | 69 | 1016.6 |
| 20260906093231 | 67 | 136 | 0.0 | 0.0 | 0.00 | 0.00 | 0.00 | 69 | 1016.7 |
| 20260906092727 | 67 | 152 | 0.0 | 0.0 | 0.00 | 0.00 | 0.00 | 69 | 1016.7 |
| 20260906092226 | 67 | 146 | 0.0 | 0.0 | 0.00 | 0.00 | 0.00 | 70 | 1016.8 |
| 20260906091722 | 67 | 142 | 0.0 | 0.0 | 0.00 | 0.00 | 0.00 | 70 | 1016.9 |
| 20260906091218 | 67 | 168 | 0.0 | 0.0 | 0.00 | 0.00 | 0.00 | 70 | 1016.8 |
| 20260906090715 | 67 | 131 | 0.0 | 0.0 | 0.00 | 0.00 | 0.00 | 71 | 1016.9 |
| 20260906090214 | 66 | 131 | 0.0 | 0.0 | 0.00 | 0.00 | 0.00 | 71 | 1017.0 |
| 20260906085713 | 66 | 147 | 0.0 | 0.0 | 0.00 | 0.00 | 0.00 | 71 | 1016.9 |
| 20260906085212 | 66 | 131 | 0.0 | 0.0 | 0.00 | 0.00 | 0.00 | 72 | 1016.9 |
| 20260906084707 | 66 | 147 | 0.0 | 0.0 | 0.00 | 0.00 | 0.00 | 72 | 1017.0 |
| 20260906084201 | 66 | 155 | 0.0 | 0.0 | 0.00 | 0.00 | 0.00 | 72 | 1016.8 |
| 20260906083656 | 66 | 159 | 0.0 | 0.0 | 0.00 | 0.00 | 0.00 | 73 | 1017.0 |
| 20260906083151 | 65 | 166 | 0.0 | 0.0 | 0.00 | 0.00 | 0.00 | 74 | 1016.8 |
| 20260906082646 | 65 | 140 | 0.0 | 0.0 | 0.00 | 0.00 | 0.00 | 74 | 1016.9 |
| 20260906082142 | 65 | 140 | 0.0 | 0.0 | 0.00 | 0.00 | 0.00 | 75 | 1017.3 |
| 20260906081637 | 65 | 156 | 0.0 | 0.0 | 0.00 | 0.00 | 0.00 | 75 | 1017.3 |
| 20260906081132 | 64 | 143 | 0.0 | 0.0 | 0.00 | 0.00 | 0.00 | 76 | 1017.0 |
| 20260906080628 | 65 | 143 | 0.0 | 0.0 | 0.00 | 0.00 | 0.00 | 76 | 1017.1 |
| 20260906080125 | 65 | 143 | 0.0 | 0.0 | 0.00 | 0.00 | 0.00 | 75 | 1017.1 |
| 20260906075624 | 65 | 145 | 0.0 | 0.0 | 0.00 | 0.00 | 0.00 | 75 | 1017.3 |
| 20260906075118 | 65 | 145 | 0.0 | 0.0 | 0.00 | 0.00 | 0.00 | 74 | 1017.1 |
| 20260906074615 | 65 | 144 | 0.0 | 0.0 | 0.00 | 0.00 | 0.00 | 73 | 1017.2 |
| 20260906074113 | 65 | 144 | 0.0 | 0.0 | 0.00 | 0.00 | 0.00 | 72 | 1017.4 |
| 20260906073608 | 65 | 144 | 0.0 | 0.0 | 0.00 | 0.00 | 0.00 | 72 | 1017.3 |
| 20260906073104 | 65 | 157 | 0.0 | 0.0 | 0.00 | 0.00 | 0.00 | 72 | 1017.1 |
| 20260906072558 | 65 | 157 | 0.0 | 0.0 | 0.00 | 0.00 | 0.00 | 74 | 1017.2 |
| 20260906072054 | 65 | 167 | 0.0 | 0.0 | 0.00 | 0.00 | 0.00 | 75 | 1017.0 |
| 20260906071551 | 65 | 152 | 0.0 | 0.0 | 0.00 | 0.00 | 0.00 | 78 | 1017.2 |
| 20260906071045 | 65 | 152 | 0.0 | 0.0 | 0.00 | 0.00 | 0.00 | 78 | 1017.2 |
| 20260906070542 | 65 | 153 | 0.0 | 0.0 | 0.00 | 0.00 | 0.00 | 78 | 1017.2 |
| 20260906070037 | 65 | 155 | 0.0 | 0.0 | 0.00 | 0.00 | 0.00 | 78 | 1017.3 |
| 20260906065537 | 65 | 155 | 0.0 | 0.0 | 0.00 | 0.00 | 0.00 | 78 | 1017.3 |
| 20260906065032 | 64 | 155 | 0.0 | 0.0 | 0.00 | 0.00 | 0.00 | 79 | 1017.2 |
| 20260906064528 | 64 | 155 | 0.0 | 0.0 | 0.00 | 0.00 | 0.00 | 79 | 1017.3 |
| 20260906064022 | 64 | 146 | 0.0 | 0.0 | 0.00 | 0.00 | 0.00 | 81 | 1017.0 |
| 20260906063518 | 64 | 146 | 0.0 | 0.0 | 0.00 | 0.00 | 0.00 | 81 | 1017.3 |
| 20260906063014 | 64 | 137 | 0.0 | 0.0 | 0.00 | 0.00 | 0.00 | 82 | 1017.3 |
| 20260906062508 | 64 | 152 | 0.0 | 0.0 | 0.00 | 0.00 | 0.00 | 83 | 1017.5 |
| 20260906061958 | 64 | 152 | 0.0 | 0.0 | 0.00 | 0.00 | 0.00 | 83 | 1017.4 |
| 20260906061453 | 64 | 152 | 0.0 | 0.0 | 0.00 | 0.00 | 0.00 | 83 | 1017.5 |
| 20260906060948 | 64 | 136 | 0.0 | 0.0 | 0.00 | 0.00 | 0.00 | 83 | 1017.4 |
| 20260906060445 | 65 | 151 | 0.0 | 0.0 | 0.00 | 0.00 | 0.00 | 82 | 1017.2 |
| 20260906055941 | 65 | 151 | 0.0 | 0.0 | 0.00 | 0.00 | 0.00 | 82 | 1017.2 |
| 20260906055437 | 65 | 157 | 0.0 | 0.0 | 0.00 | 0.00 | 0.00 | 82 | 1017.3 |
| 20260906054932 | 65 | 159 | 0.0 | 0.0 | 0.00 | 0.00 | 0.00 | 82 | 1017.2 |
| 20260906054427 | 65 | 159 | 0.0 | 0.0 | 0.00 | 0.00 | 0.00 | 81 | 1017.3 |
| 20260906053922 | 65 | 162 | 0.0 | 0.0 | 0.00 | 0.00 | 0.00 | 82 | 1017.2 |
| 20260906053419 | 65 | 162 | 0.0 | 0.0 | 0.00 | 0.00 | 0.00 | 81 | 1017.4 |
| 20260906052914 | 65 | 162 | 0.0 | 0.0 | 0.00 | 0.00 | 0.00 | 81 | 1017.2 |
| 20260906052410 | 65 | 162 | 0.0 | 0.0 | 0.00 | 0.00 | 0.00 | 80 | 1017.4 |
| 20260906051907 | 65 | 162 | 0.0 | 0.0 | 0.00 | 0.00 | 0.00 | 79 | 1017.4 |
| 20260906051407 | 65 | 162 | 0.0 | 0.0 | 0.00 | 0.00 | 0.00 | 78 | 1017.4 |
| 20260906050903 | 65 | 162 | 0.0 | 0.0 | 0.00 | 0.00 | 0.00 | 79 | 1017.5 |
| 20260906050357 | 65 | 159 | 0.0 | 0.0 | 0.00 | 0.00 | 0.00 | 77 | 1017.5 |
| 20260906045855 | 66 | 162 | 0.0 | 0.0 | 0.00 | 0.00 | 0.00 | 78 | 1017.6 |
| 20260906045355 | 66 | 161 | 0.0 | 0.0 | 0.00 | 0.00 | 0.00 | 77 | 1017.8 |
| 20260906044851 | 66 | 162 | 0.0 | 0.0 | 0.00 | 0.00 | 0.00 | 78 | 1017.6 |
| 20260906044351 | 66 | 162 | 0.0 | 0.0 | 0.00 | 0.00 | 0.00 | 77 | 1017.9 |
| 20260906043847 | 66 | 162 | 0.0 | 0.0 | 0.00 | 0.00 | 0.00 | 76 | 1017.9 |
| 20260906043343 | 66 | 162 | 0.0 | 0.0 | 0.00 | 0.00 | 0.00 | 77 | 1017.5 |
| 20260906042838 | 66 | 163 | 0.0 | 0.0 | 0.00 | 0.00 | 0.00 | 78 | 1017.6 |
| 20260906042336 | 67 | 161 | 0.0 | 0.0 | 0.00 | 0.00 | 0.00 | 77 | 1017.7 |
| 20260906041832 | 67 | 165 | 0.0 | 0.0 | 0.00 | 0.00 | 0.00 | 78 | 1017.8 |
| 20260906041328 | 67 | 173 | 0.0 | 0.0 | 0.00 | 0.00 | 0.00 | 79 | 1017.7 |
| 20260906040828 | 67 | 169 | 0.0 | 0.0 | 0.00 | 0.00 | 0.00 | 78 | 1017.5 |
| 20260906040323 | 67 | 155 | 0.0 | 0.0 | 0.00 | 0.00 | 0.00 | 77 | 1017.6 |
| 20260906035819 | 68 | 161 | 0.0 | 0.0 | 0.00 | 0.00 | 0.00 | 77 | 1017.4 |
| 20260906035314 | 68 | 175 | 0.0 | 0.0 | 0.00 | 0.00 | 0.00 | 78 | 1017.5 |
| 20260906034809 | 68 | 176 | 0.0 | 1.0 | 0.00 | 0.00 | 0.00 | 78 | 1017.4 |
| 20260906034304 | 68 | 171 | 0.0 | 0.0 | 0.00 | 0.00 | 0.00 | 78 | 1017.3 |
| 20260906033800 | 68 | 171 | 0.0 | 0.0 | 0.00 | 0.00 | 0.00 | 76 | 1017.3 |
| 20260906033259 | 68 | 163 | 0.0 | 0.0 | 0.00 | 0.00 | 0.00 | 75 | 1017.3 |
| 20260906032756 | 68 | 155 | 0.0 | 0.0 | 0.00 | 0.00 | 0.00 | 73 | 1017.0 |
| 20260906032255 | 68 | 155 | 0.0 | 0.0 | 0.00 | 0.00 | 0.00 | 74 | 1017.2 |
| 20260906031750 | 68 | 156 | 0.0 | 0.0 | 0.00 | 0.00 | 0.00 | 74 | 1017.1 |
| 20260906031247 | 68 | 153 | 0.0 | 0.0 | 0.00 | 0.00 | 0.00 | 74 | 1017.2 |
| 20260906030740 | 69 | 151 | 0.0 | 0.0 | 0.00 | 0.00 | 0.00 | 72 | 1017.2 |
| 20260906030235 | 69 | 151 | 0.0 | 0.0 | 0.00 | 0.00 | 0.00 | 72 | 1017.0 |
| 20260906025734 | 69 | 157 | 0.0 | 0.0 | 0.00 | 0.00 | 0.00 | 73 | 1017.0 |
| 20260906025230 | 70 | 157 | 0.0 | 0.0 | 0.00 | 0.00 | 0.00 | 73 | 1017.2 |
| 20260906024728 | 70 | 157 | 0.0 | 0.0 | 0.00 | 0.00 | 0.00 | 71 | 1017.1 |
| 20260906024227 | 70 | 162 | 0.0 | 0.0 | 0.00 | 0.00 | 0.00 | 71 | 1017.0 |
| 20260906023723 | 70 | 157 | 0.0 | 0.0 | 0.00 | 0.00 | 0.00 | 70 | 1017.1 |
| 20260906023218 | 71 | 184 | 0.0 | 0.0 | 0.00 | 0.00 | 0.00 | 70 | 1016.9 |
| 20260906022714 | 71 | 165 | 0.0 | 1.0 | 0.00 | 0.00 | 0.00 | 70 | 1016.8 |
| 20260906022209 | 72 | 162 | 0.0 | 1.0 | 0.00 | 0.00 | 0.00 | 69 | 1016.8 |
| 20260906021705 | 72 | 178 | 0.0 | 1.0 | 0.00 | 0.00 | 0.00 | 68 | 1017.2 |
| 20260906021203 | 72 | 132 | 0.0 | 0.0 | 0.00 | 0.00 | 0.00 | 67 | 1016.9 |
| 20260906020658 | 73 | 147 | 0.0 | 1.0 | 0.00 | 0.00 | 0.00 | 65 | 1017.0 |
| 20260906020153 | 73 | 139 | 0.0 | 1.0 | 0.00 | 0.00 | 0.00 | 65 | 1016.9 |
| 20260906015648 | 74 | 133 | 0.0 | 0.0 | 0.00 | 0.00 | 0.00 | 64 | 1016.9 |
| 20260906015146 | 74 | 140 | 0.0 | 3.0 | 0.00 | 0.00 | 0.00 | 63 | 1017.0 |
| 20260906014641 | 75 | 73 | 1.0 | 1.0 | 0.00 | 0.00 | 0.00 | 61 | 1016.6 |
| 20260906014137 | 75 | 48 | 1.0 | 3.0 | 0.00 | 0.00 | 0.00 | 59 | 1016.7 |
| 20260906013633 | 75 | 47 | 0.0 | 2.0 | 0.00 | 0.00 | 0.00 | 58 | 1016.7 |
| 20260906013128 | 76 | 228 | 1.0 | 3.0 | 0.00 | 0.00 | 0.00 | 56 | 1016.8 |
| 20260906012627 | 77 | 7 | 2.0 | 3.0 | 0.00 | 0.00 | 0.00 | 54 | 1016.7 |
| 20260906012122 | 78 | 185 | 1.0 | 3.0 | 0.00 | 0.00 | 0.00 | 52 | 1016.8 |
| 20260906011618 | 79 | 133 | 0.0 | 2.0 | 0.00 | 0.00 | 0.00 | 51 | 1016.5 |
| 20260906011113 | 80 | 277 | 3.0 | 4.0 | 0.00 | 0.00 | 0.00 | 49 | 1016.9 |
| 20260906010608 | 80 | 186 | 1.0 | 1.0 | 0.00 | 0.00 | 0.00 | 47 | 1016.6 |
| 20260906010104 | 80 | 151 | 2.0 | 4.0 | 0.00 | 0.00 | 0.00 | 46 | 1016.9 |
| 20260906005603 | 81 | 230 | 2.0 | 3.0 | 0.00 | 0.00 | 0.00 | 44 | 1016.8 |
| 20260906005102 | 82 | 274 | 5.0 | 6.0 | 0.00 | 0.00 | 0.00 | 44 | 1016.8 |
| 20260906004556 | 82 | 262 | 2.0 | 3.0 | 0.00 | 0.00 | 0.00 | 44 | 1016.7 |
| 20260906004051 | 82 | 241 | 1.0 | 2.0 | 0.00 | 0.00 | 0.00 | 44 | 1016.6 |
| 20260906003546 | 83 | 158 | 1.0 | 6.0 | 0.00 | 0.00 | 0.00 | 43 | 1016.4 |
| 20260906003042 | 83 | 142 | 1.0 | 4.0 | 0.00 | 0.00 | 0.00 | 42 | 1016.4 |
| 20260906002537 | 83 | 251 | 2.0 | 3.0 | 0.00 | 0.00 | 0.00 | 42 | 1016.3 |
| 20260906002032 | 83 | 212 | 2.0 | 4.0 | 0.00 | 0.00 | 0.00 | 42 | 1016.7 |
| 20260906001527 | 83 | 161 | 0.0 | 2.0 | 0.00 | 0.00 | 0.00 | 42 | 1016.4 |
| 20260906001021 | 83 | 77 | 2.0 | 8.0 | 0.00 | 0.00 | 0.00 | 41 | 1016.4 |
| 20260906000518 | 84 | 287 | 1.0 | 4.0 | 0.00 | 0.00 | 0.00 | 40 | 1016.5 |
| 20260906000018 | 84 | 196 | 1.0 | 2.0 | 0.00 | 0.00 | 0.00 | 39 | 1016.3 |
| 20260905235512 | 85 | 303 | 4.0 | 6.0 | 0.00 | 0.00 | 0.00 | 39 | 1016.4 |
| 20260905235007 | 85 | 283 | 1.0 | 4.0 | 0.00 | 0.00 | 0.00 | 38 | 1016.5 |
| 20260905234502 | 85 | 230 | 2.0 | 6.0 | 0.00 | 0.00 | 0.00 | 40 | 1016.5 |
| 20260905233956 | 85 | 256 | 3.0 | 6.0 | 0.00 | 0.00 | 0.00 | 40 | 1016.3 |
| 20260905233452 | 85 | 155 | 1.0 | 4.0 | 0.00 | 0.00 | 0.00 | 41 | 1016.5 |
| 20260905232950 | 85 | 229 | 2.0 | 4.0 | 0.00 | 0.00 | 0.00 | 41 | 1016.5 |
| 20260905232447 | 85 | 109 | 1.0 | 7.0 | 0.00 | 0.00 | 0.00 | 43 | 1016.5 |
| 20260905231943 | 85 | 231 | 2.0 | 4.0 | 0.00 | 0.00 | 0.00 | 42 | 1016.6 |
| 20260905231438 | 86 | 175 | 4.0 | 8.0 | 0.00 | 0.00 | 0.00 | 43 | 1016.2 |
| 20260905230934 | 86 | 293 | 3.0 | 4.0 | 0.00 | 0.00 | 0.00 | 43 | 1016.5 |
| 20260905230433 | 86 | 207 | 1.0 | 4.0 | 0.00 | 0.00 | 0.00 | 45 | 1016.4 |
| 20260905225931 | 86 | 189 | 2.0 | 8.0 | 0.00 | 0.00 | 0.00 | 44 | 1016.6 |
| 20260905225426 | 86 | 297 | 4.0 | 4.0 | 0.00 | 0.00 | 0.00 | 42 | 1016.5 |
| 20260905224921 | 87 | 357 | 2.0 | 4.0 | 0.00 | 0.00 | 0.00 | 41 | 1016.4 |
| 20260905224417 | 86 | 19 | 1.0 | 3.0 | 0.00 | 0.00 | 0.00 | 42 | 1016.5 |